Wetterdaten: Freitag, 29.05.2015
Datum Zeit Temp. A. Feuchte A. Luftdruck Regen Wind Richtung Richtung Sonnenschein ET UV Solar Taupunkt Windchill Windben Empfang
29.05.2015 00:00 11,1 C 80 % 1015,0 hPa 0,0 l/m 0,0 km/h (0 Bft) S 180 0 min 0,000 mm 0,0 UV-I 0 W/m 7,8 C 11,1 C 0,0 km/h (0 Bft) 0,00 %
29.05.2015 00:15 11,1 C 80 % 1015,0 hPa 0,0 l/m 0,0 km/h (0 Bft) S 179 0 min 0,000 mm 0,0 UV-I 0 W/m 7,8 C 11,1 C 0,0 km/h (0 Bft) 0,00 %
29.05.2015 00:30 10,8 C 80 % 1015,0 hPa 0,0 l/m 0,0 km/h (0 Bft) S 181 0 min 0,000 mm 0,0 UV-I 0 W/m 7,5 C 10,8 C 0,0 km/h (0 Bft) 0,00 %
29.05.2015 00:45 10,6 C 79 % 1014,9 hPa 0,0 l/m 0,0 km/h (0 Bft) S 176 0 min 0,000 mm 0,0 UV-I 0 W/m 7,1 C 10,6 C 0,0 km/h (0 Bft) 0,00 %
29.05.2015 01:00 10,5 C 80 % 1014,9 hPa 0,0 l/m 0,0 km/h (0 Bft) S 190 0 min 0,000 mm 0,0 UV-I 0 W/m 7,2 C 10,5 C 0,0 km/h (0 Bft) 0,00 %
29.05.2015 01:15 10,3 C 80 % 1014,8 hPa 0,0 l/m 0,0 km/h (0 Bft) S-SO 160 0 min 0,000 mm 0,0 UV-I 0 W/m 7,0 C 10,3 C 0,0 km/h (0 Bft) 0,00 %
29.05.2015 01:30 10,3 C 80 % 1014,9 hPa 0,0 l/m 0,0 km/h (0 Bft) S 190 0 min 0,000 mm 0,0 UV-I 0 W/m 7,0 C 10,3 C 0,0 km/h (0 Bft) 0,00 %
29.05.2015 01:45 10,0 C 81 % 1015,0 hPa 0,0 l/m 0,0 km/h (0 Bft) S 179 0 min 0,000 mm 0,0 UV-I 0 W/m 6,9 C 10,0 C 0,0 km/h (0 Bft) 0,00 %
29.05.2015 02:00 9,8 C 81 % 1014,8 hPa 0,0 l/m 0,0 km/h (0 Bft) SO 135 0 min 0,000 mm 0,0 UV-I 0 W/m 6,7 C 9,8 C 0,0 km/h (0 Bft) 0,00 %
29.05.2015 02:15 9,5 C 84 % 1014,9 hPa 0,0 l/m 0,0 km/h (0 Bft) S 177 0 min 0,000 mm 0,0 UV-I 0 W/m 6,9 C 9,5 C 0,0 km/h (0 Bft) 0,00 %
29.05.2015 02:30 9,4 C 83 % 1015,2 hPa 0,0 l/m 0,0 km/h (0 Bft) S 173 0 min 0,000 mm 0,0 UV-I 0 W/m 6,7 C 9,4 C 0,0 km/h (0 Bft) 0,00 %
29.05.2015 02:45 9,3 C 83 % 1014,8 hPa 0,0 l/m 0,0 km/h (0 Bft) S 178 0 min 0,000 mm 0,0 UV-I 0 W/m 6,6 C 9,3 C 0,0 km/h (0 Bft) 0,00 %
29.05.2015 03:00 9,0 C 83 % 1014,8 hPa 0,0 l/m 0,0 km/h (0 Bft) S 182 0 min 0,000 mm 0,0 UV-I 0 W/m 6,3 C 9,0 C 0,0 km/h (0 Bft) 0,00 %
29.05.2015 03:15 8,9 C 84 % 1014,5 hPa 0,0 l/m 0,0 km/h (0 Bft) S-SW 209 0 min 0,000 mm 0,0 UV-I 0 W/m 6,3 C 8,9 C 0,0 km/h (0 Bft) 0,00 %
29.05.2015 03:30 9,0 C 83 % 1014,3 hPa 0,0 l/m 0,0 km/h (0 Bft) S 181 0 min 0,000 mm 0,0 UV-I 0 W/m 6,3 C 9,0 C 0,0 km/h (0 Bft) 0,00 %
29.05.2015 03:45 9,1 C 83 % 1014,3 hPa 0,0 l/m 0,0 km/h (0 Bft) S 183 0 min 0,000 mm 0,0 UV-I 0 W/m 6,4 C 9,1 C 0,0 km/h (0 Bft) 0,00 %
29.05.2015 04:00 8,9 C 82 % 1014,1 hPa 0,0 l/m 0,0 km/h (0 Bft) S-SW 209 0 min 0,000 mm 0,0 UV-I 0 W/m 6,0 C 8,9 C 0,0 km/h (0 Bft) 0,00 %
29.05.2015 04:15 8,7 C 86 % 1014,6 hPa 0,0 l/m 0,0 km/h (0 Bft) S-SW 196 0 min 0,000 mm 0,0 UV-I 0 W/m 6,5 C 8,7 C 0,0 km/h (0 Bft) 0,00 %
29.05.2015 04:30 8,2 C 88 % 1014,6 hPa 0,0 l/m 0,0 km/h (0 Bft) O-SO 119 0 min 0,000 mm 0,0 UV-I 0 W/m 6,3 C 8,2 C 0,0 km/h (0 Bft) 0,00 %
29.05.2015 04:45 8,2 C 88 % 1014,7 hPa 0,0 l/m 0,0 km/h (0 Bft) S-SO 150 0 min 0,000 mm 0,0 UV-I 0 W/m 6,3 C 8,2 C 0,0 km/h (0 Bft) 0,00 %
29.05.2015 05:00 8,0 C 89 % 1014,8 hPa 0,0 l/m 0,0 km/h (0 Bft) S 179 0 min 0,000 mm 0,0 UV-I 0 W/m 6,3 C 8,0 C 0,0 km/h (0 Bft) 0,00 %
29.05.2015 05:15 7,9 C 89 % 1014,6 hPa 0,0 l/m 0,0 km/h (0 Bft) SW 222 0 min 0,000 mm 0,0 UV-I 0 W/m 6,2 C 7,9 C 0,0 km/h (0 Bft) 0,00 %
29.05.2015 05:30 8,3 C 88 % 1014,7 hPa 0,0 l/m 0,0 km/h (0 Bft) S-SW 197 0 min 0,000 mm 0,0 UV-I 3 W/m 6,4 C 8,3 C 0,0 km/h (0 Bft) 0,00 %
29.05.2015 05:45 8,8 C 87 % 1014,7 hPa 0,0 l/m 0,0 km/h (0 Bft) S-SW 192 0 min 0,000 mm 0,0 UV-I 21 W/m 6,8 C 8,8 C 0,0 km/h (0 Bft) 0,00 %
29.05.2015 06:00 9,0 C 86 % 1014,7 hPa 0,0 l/m 0,0 km/h (0 Bft) S 179 0 min 0,000 mm 0,0 UV-I 32 W/m 6,8 C 9,0 C 0,0 km/h (0 Bft) 0,00 %
29.05.2015 06:15 8,7 C 87 % 1014,8 hPa 0,0 l/m 0,4 km/h (0 Bft) W-SW 255 0 min 0,000 mm 0,0 UV-I 47 W/m 6,7 C 8,7 C 4,0 km/h (1 Bft) 0,00 %
29.05.2015 06:30 9,2 C 87 % 1015,0 hPa 0,0 l/m 0,0 km/h (0 Bft) S 179 0 min 0,000 mm 1,0 UV-I 59 W/m 7,2 C 9,2 C 0,0 km/h (0 Bft) 0,00 %
29.05.2015 06:45 9,6 C 86 % 1014,7 hPa 0,0 l/m 0,0 km/h (0 Bft) S 177 0 min 0,000 mm 1,0 UV-I 81 W/m 7,4 C 9,6 C 0,0 km/h (0 Bft) 0,00 %
29.05.2015 07:00 11,6 C 77 % 1014,6 hPa 0,0 l/m 0,0 km/h (0 Bft) S 180 15 min 0,000 mm 1,0 UV-I 207 W/m 7,7 C 11,6 C 0,0 km/h (0 Bft) 0,00 %
29.05.2015 07:15 13,1 C 71 % 1014,5 hPa 0,0 l/m 0,0 km/h (0 Bft) S 186 15 min 0,000 mm 1,0 UV-I 198 W/m 8,0 C 13,1 C 0,0 km/h (0 Bft) 0,00 %
29.05.2015 07:30 14,9 C 60 % 1014,2 hPa 0,0 l/m 0,0 km/h (0 Bft) S 177 15 min 0,000 mm 1,0 UV-I 377 W/m 7,2 C 14,9 C 0,0 km/h (0 Bft) 0,00 %
29.05.2015 07:45 15,6 C 60 % 1014,1 hPa 0,0 l/m 0,0 km/h (0 Bft) S-SW 194 15 min 0,000 mm 2,0 UV-I 463 W/m 7,9 C 15,6 C 0,0 km/h (0 Bft) 0,00 %
29.05.2015 08:00 16,3 C 58 % 1014,1 hPa 0,0 l/m 1,4 km/h (1 Bft) SW 215 15 min 0,000 mm 2,0 UV-I 456 W/m 8,0 C 16,3 C 4,0 km/h (1 Bft) 0,00 %
29.05.2015 08:15 15,7 C 59 % 1014,2 hPa 0,0 l/m 0,0 km/h (0 Bft) SW 225 15 min 0,000 mm 2,0 UV-I 482 W/m 7,7 C 15,7 C 0,0 km/h (0 Bft) 0,00 %
29.05.2015 08:30 16,2 C 57 % 1013,9 hPa 0,0 l/m 0,0 km/h (0 Bft) S-SW 197 15 min 0,000 mm 2,0 UV-I 350 W/m 7,7 C 16,2 C 0,0 km/h (0 Bft) 0,00 %
29.05.2015 08:45 16,5 C 60 % 1014,1 hPa 0,0 l/m 0,7 km/h (0 Bft) N-NO 23 15 min 0,000 mm 2,0 UV-I 480 W/m 8,7 C 16,5 C 4,0 km/h (1 Bft) 0,00 %
29.05.2015 09:00 16,6 C 57 % 1014,0 hPa 0,0 l/m 0,0 km/h (0 Bft) S 191 15 min 0,000 mm 2,0 UV-I 440 W/m 8,0 C 16,6 C 0,0 km/h (0 Bft) 0,00 %
29.05.2015 09:15 17,7 C 54 % 1013,7 hPa 0,0 l/m 1,8 km/h (1 Bft) O 85 15 min 0,000 mm 3,0 UV-I 536 W/m 8,3 C 17,7 C 4,0 km/h (1 Bft) 0,00 %
29.05.2015 09:30 18,4 C 53 % 1013,5 hPa 0,0 l/m 0,0 km/h (0 Bft) O-SO 121 15 min 0,000 mm 3,0 UV-I 563 W/m 8,6 C 18,4 C 0,0 km/h (0 Bft) 0,00 %
29.05.2015 09:45 18,7 C 53 % 1013,4 hPa 0,0 l/m 0,0 km/h (0 Bft) S-SW 198 15 min 0,000 mm 3,0 UV-I 587 W/m 8,9 C 18,7 C 0,0 km/h (0 Bft) 0,00 %
29.05.2015 10:00 19,4 C 50 % 1013,2 hPa 0,0 l/m 0,4 km/h (0 Bft) O 94 15 min 0,000 mm 4,0 UV-I 603 W/m 8,7 C 19,4 C 4,0 km/h (1 Bft) 0,00 %
29.05.2015 10:15 19,2 C 48 % 1013,2 hPa 0,0 l/m 3,2 km/h (1 Bft) W-NW 295 15 min 0,000 mm 4,0 UV-I 634 W/m 7,9 C 19,2 C 4,0 km/h (1 Bft) 0,00 %
29.05.2015 10:30 19,6 C 44 % 1013,2 hPa 0,0 l/m 2,9 km/h (1 Bft) O-NO 59 15 min 0,000 mm 4,0 UV-I 658 W/m 7,0 C 19,6 C 4,0 km/h (1 Bft) 0,00 %
29.05.2015 10:45 19,8 C 46 % 1012,9 hPa 0,0 l/m 0,0 km/h (0 Bft) N-NO 31 15 min 0,000 mm 4,0 UV-I 691 W/m 7,8 C 19,8 C 0,0 km/h (0 Bft) 0,00 %
29.05.2015 11:00 20,1 C 50 % 1012,8 hPa 0,0 l/m 0,4 km/h (0 Bft) O 84 15 min 0,000 mm 5,0 UV-I 709 W/m 9,3 C 20,1 C 4,0 km/h (1 Bft) 0,00 %
29.05.2015 11:15 20,1 C 50 % 1012,6 hPa 0,0 l/m 0,4 km/h (0 Bft) NO 47 15 min 0,000 mm 5,0 UV-I 725 W/m 9,3 C 20,1 C 4,0 km/h (1 Bft) 0,00 %
29.05.2015 11:30 20,8 C 42 % 1012,4 hPa 0,0 l/m 0,0 km/h (0 Bft) O-SO 121 15 min 0,000 mm 5,0 UV-I 743 W/m 7,4 C 20,8 C 0,0 km/h (0 Bft) 0,00 %
29.05.2015 11:45 21,1 C 42 % 1012,1 hPa 0,0 l/m 1,4 km/h (1 Bft) O-NO 60 15 min 0,000 mm 6,0 UV-I 762 W/m 7,7 C 21,1 C 4,0 km/h (1 Bft) 0,00 %
29.05.2015 12:00 21,5 C 44 % 1011,9 hPa 0,0 l/m 4,7 km/h (1 Bft) O-SO 107 15 min 0,000 mm 6,0 UV-I 774 W/m 8,7 C 21,5 C 7,9 km/h (2 Bft) 0,00 %
29.05.2015 12:15 21,3 C 41 % 1011,5 hPa 0,0 l/m 0,7 km/h (0 Bft) S-SO 150 15 min 0,000 mm 6,0 UV-I 782 W/m 7,5 C 21,3 C 4,0 km/h (1 Bft) 0,00 %
29.05.2015 12:30 22,0 C 46 % 1011,2 hPa 0,0 l/m 3,2 km/h (1 Bft) NO 48 15 min 0,000 mm 6,0 UV-I 766 W/m 9,8 C 22,0 C 4,0 km/h (1 Bft) 0,00 %
29.05.2015 12:45 21,8 C 41 % 1011,2 hPa 0,0 l/m 0,0 km/h (0 Bft) O-SO 118 15 min 0,000 mm 6,0 UV-I 808 W/m 8,0 C 21,8 C 0,0 km/h (0 Bft) 0,00 %
29.05.2015 13:00 22,3 C 42 % 1011,0 hPa 0,0 l/m 0,0 km/h (0 Bft) N-NO 28 15 min 0,000 mm 6,0 UV-I 814 W/m 8,8 C 22,3 C 0,0 km/h (0 Bft) 0,00 %
29.05.2015 13:15 22,7 C 39 % 1010,6 hPa 0,0 l/m 0,0 km/h (0 Bft) O-SO 107 15 min 0,000 mm 6,0 UV-I 832 W/m 8,0 C 22,7 C 0,0 km/h (0 Bft) 0,00 %
29.05.2015 13:30 22,8 C 39 % 1010,1 hPa 0,0 l/m 0,0 km/h (0 Bft) SO 142 15 min 0,000 mm 6,0 UV-I 849 W/m 8,1 C 22,8 C 0,0 km/h (0 Bft) 0,00 %
29.05.2015 13:45 24,6 C 32 % 1009,7 hPa 0,0 l/m 0,0 km/h (0 Bft) S-SO 153 15 min 0,000 mm 5,0 UV-I 866 W/m 6,8 C 24,6 C 0,0 km/h (0 Bft) 0,00 %
29.05.2015 14:00 25,0 C 30 % 1009,5 hPa 0,0 l/m 0,0 km/h (0 Bft) S 179 15 min 0,000 mm 4,0 UV-I 902 W/m 6,2 C 25,0 C 0,0 km/h (0 Bft) 0,00 %
29.05.2015 14:15 23,6 C 35 % 1009,7 hPa 0,0 l/m 0,4 km/h (0 Bft) S-SW 205 15 min 0,000 mm 5,0 UV-I 898 W/m 7,2 C 23,6 C 4,0 km/h (1 Bft) 0,00 %
29.05.2015 14:30 23,7 C 32 % 1009,2 hPa 0,0 l/m 0,0 km/h (0 Bft) S-SW 195 15 min 0,000 mm 3,0 UV-I 896 W/m 6,0 C 23,7 C 0,0 km/h (0 Bft) 0,00 %
29.05.2015 14:45 23,7 C 34 % 1009,0 hPa 0,0 l/m 0,0 km/h (0 Bft) N 354 0 min 0,000 mm 2,0 UV-I 370 W/m 6,9 C 23,7 C 0,0 km/h (0 Bft) 0,00 %
29.05.2015 15:00 23,4 C 36 % 1009,0 hPa 0,0 l/m 0,0 km/h (0 Bft) W-NW 299 15 min 0,000 mm 2,0 UV-I 509 W/m 7,5 C 23,4 C 0,0 km/h (0 Bft) 0,00 %
29.05.2015 15:15 22,9 C 39 % 1008,9 hPa 0,0 l/m 2,2 km/h (1 Bft) O-SO 111 0 min 0,000 mm 4,0 UV-I 397 W/m 8,2 C 22,9 C 4,0 km/h (1 Bft) 0,00 %
29.05.2015 15:30 24,3 C 35 % 1008,4 hPa 0,0 l/m 2,2 km/h (1 Bft) O-SO 110 15 min 0,000 mm 2,0 UV-I 1049 W/m 7,8 C 24,3 C 4,0 km/h (1 Bft) 0,00 %
29.05.2015 15:45 24,1 C 32 % 1008,2 hPa 0,0 l/m 5,4 km/h (1 Bft) O-SO 106 15 min 0,000 mm 5,0 UV-I 491 W/m 6,4 C 24,1 C 11,9 km/h (2 Bft) 0,00 %
29.05.2015 16:00 24,2 C 37 % 1008,0 hPa 0,0 l/m 0,4 km/h (0 Bft) O-SO 121 15 min 0,000 mm 2,0 UV-I 1053 W/m 8,6 C 24,2 C 4,0 km/h (1 Bft) 0,00 %
29.05.2015 16:15 22,5 C 41 % 1008,2 hPa 0,0 l/m 4,3 km/h (1 Bft) O-SO 105 0 min 0,000 mm 2,0 UV-I 361 W/m 8,6 C 22,5 C 7,9 km/h (2 Bft) 0,00 %
29.05.2015 16:30 22,9 C 41 % 1007,8 hPa 0,0 l/m 0,0 km/h (0 Bft) O-SO 122 0 min 0,000 mm 2,0 UV-I 341 W/m 8,9 C 22,9 C 0,0 km/h (0 Bft) 0,00 %
29.05.2015 16:45 24,0 C 35 % 1007,5 hPa 0,0 l/m 0,7 km/h (0 Bft) O 90 15 min 0,000 mm 2,0 UV-I 907 W/m 7,6 C 24,0 C 4,0 km/h (1 Bft) 0,00 %
29.05.2015 17:00 23,8 C 37 % 1007,4 hPa 0,0 l/m 0,7 km/h (0 Bft) O 100 15 min 0,000 mm 2,0 UV-I 804 W/m 8,2 C 23,8 C 4,0 km/h (1 Bft) 0,00 %
29.05.2015 17:15 23,3 C 37 % 1007,1 hPa 0,0 l/m 6,5 km/h (2 Bft) O 98 15 min 0,000 mm 1,0 UV-I 695 W/m 7,8 C 23,3 C 7,9 km/h (2 Bft) 0,00 %
29.05.2015 17:30 23,1 C 42 % 1007,1 hPa 0,0 l/m 11,9 km/h (2 Bft) O-SO 104 15 min 0,000 mm 1,0 UV-I 734 W/m 9,5 C 21,6 C 15,8 km/h (3 Bft) 0,00 %
29.05.2015 17:45 23,1 C 40 % 1006,9 hPa 0,0 l/m 5,8 km/h (2 Bft) O 86 15 min 0,000 mm 1,0 UV-I 699 W/m 8,8 C 23,1 C 7,9 km/h (2 Bft) 0,00 %
29.05.2015 18:00 23,3 C 38 % 1006,6 hPa 0,0 l/m 0,7 km/h (0 Bft) SO 130 15 min 0,000 mm 1,0 UV-I 662 W/m 8,2 C 23,3 C 4,0 km/h (1 Bft) 0,00 %
29.05.2015 18:15 22,9 C 41 % 1006,3 hPa 0,0 l/m 4,3 km/h (1 Bft) O-SO 111 15 min 0,000 mm 1,0 UV-I 565 W/m 8,9 C 22,9 C 7,9 km/h (2 Bft) 0,00 %
29.05.2015 18:30 22,3 C 39 % 1006,4 hPa 0,0 l/m 6,5 km/h (2 Bft) O 86 15 min 0,000 mm 1,0 UV-I 605 W/m 7,7 C 22,3 C 11,9 km/h (2 Bft) 0,00 %
29.05.2015 18:45 22,3 C 40 % 1006,3 hPa 0,0 l/m 0,4 km/h (0 Bft) S-SO 158 15 min 0,000 mm 1,0 UV-I 595 W/m 8,0 C 22,3 C 4,0 km/h (1 Bft) 0,00 %
29.05.2015 19:00 22,2 C 42 % 1006,1 hPa 0,0 l/m 1,8 km/h (1 Bft) SO 134 15 min 0,000 mm 1,0 UV-I 548 W/m 8,7 C 22,2 C 4,0 km/h (1 Bft) 0,00 %
29.05.2015 19:15 21,8 C 45 % 1006,3 hPa 0,0 l/m 6,5 km/h (2 Bft) O-SO 108 15 min 0,000 mm 1,0 UV-I 491 W/m 9,3 C 21,8 C 7,9 km/h (2 Bft) 0,00 %
29.05.2015 19:30 20,5 C 50 % 1006,4 hPa 0,0 l/m 0,0 km/h (0 Bft) SO 140 15 min 0,000 mm 1,0 UV-I 211 W/m 9,7 C 20,5 C 0,0 km/h (0 Bft) 0,00 %
29.05.2015 19:45 20,2 C 53 % 1006,4 hPa 0,0 l/m 0,0 km/h (0 Bft) SO 143 15 min 0,000 mm 0,0 UV-I 127 W/m 10,3 C 20,2 C 0,0 km/h (0 Bft) 0,00 %
29.05.2015 20:00 20,5 C 52 % 1006,2 hPa 0,0 l/m 0,0 km/h (0 Bft) O-SO 110 15 min 0,000 mm 0,0 UV-I 219 W/m 10,3 C 20,5 C 0,0 km/h (0 Bft) 0,00 %
29.05.2015 20:15 19,7 C 52 % 1006,6 hPa 0,0 l/m 0,0 km/h (0 Bft) S-SW 203 15 min 0,000 mm 0,0 UV-I 129 W/m 9,6 C 19,7 C 0,0 km/h (0 Bft) 0,00 %
29.05.2015 20:30 19,1 C 53 % 1006,7 hPa 0,0 l/m 0,0 km/h (0 Bft) SO 137 15 min 0,000 mm 0,0 UV-I 27 W/m 9,3 C 19,1 C 0,0 km/h (0 Bft) 0,00 %
29.05.2015 20:45 18,7 C 54 % 1006,7 hPa 0,0 l/m 0,7 km/h (0 Bft) N 358 0 min 0,000 mm 0,0 UV-I 0 W/m 9,2 C 18,7 C 4,0 km/h (1 Bft) 0,00 %
29.05.2015 21:00 18,7 C 52 % 1007,1 hPa 0,0 l/m 1,8 km/h (1 Bft) O 99 0 min 0,000 mm 0,0 UV-I 0 W/m 8,6 C 18,7 C 4,0 km/h (1 Bft) 0,00 %
29.05.2015 21:15 17,9 C 57 % 1006,8 hPa 0,0 l/m 0,0 km/h (0 Bft) O 93 0 min 0,000 mm 0,0 UV-I 0 W/m 9,3 C 17,9 C 0,0 km/h (0 Bft) 0,00 %
29.05.2015 21:30 17,3 C 57 % 1006,6 hPa 0,0 l/m 0,0 km/h (0 Bft) S-SO 149 0 min 0,000 mm 0,0 UV-I 0 W/m 8,7 C 17,3 C 0,0 km/h (0 Bft) 0,00 %
29.05.2015 21:45 16,9 C 59 % 1006,9 hPa 0,0 l/m 0,0 km/h (0 Bft) SW 216 0 min 0,000 mm 0,0 UV-I 0 W/m 8,8 C 16,9 C 0,0 km/h (0 Bft) 0,00 %
29.05.2015 22:00 16,3 C 62 % 1007,3 hPa 0,0 l/m 0,0 km/h (0 Bft) SW 216 0 min 0,000 mm 0,0 UV-I 0 W/m 9,0 C 16,3 C 0,0 km/h (0 Bft) 0,00 %
29.05.2015 22:15 15,4 C 67 % 1007,8 hPa 0,0 l/m 0,0 km/h (0 Bft) S-SO 157 0 min 0,000 mm 0,0 UV-I 0 W/m 9,3 C 15,4 C 0,0 km/h (0 Bft) 0,00 %
29.05.2015 22:30 15,2 C 66 % 1008,3 hPa 0,0 l/m 0,0 km/h (0 Bft) S 176 0 min 0,000 mm 0,0 UV-I 0 W/m 8,9 C 15,2 C 0,0 km/h (0 Bft) 0,00 %
29.05.2015 22:45 16,2 C 60 % 1008,1 hPa 0,0 l/m 1,4 km/h (1 Bft) N 3 0 min 0,000 mm 0,0 UV-I 0 W/m 8,4 C 16,2 C 4,0 km/h (1 Bft) 0,00 %
29.05.2015 23:00 16,2 C 60 % 1008,5 hPa 0,0 l/m 0,0 km/h (0 Bft) S 177 0 min 0,000 mm 0,0 UV-I 0 W/m 8,4 C 16,2 C 0,0 km/h (0 Bft) 0,00 %
29.05.2015 23:15 15,7 C 65 % 1008,8 hPa 0,0 l/m 0,0 km/h (0 Bft) S-SW 197 0 min 0,000 mm 0,0 UV-I 0 W/m 9,1 C 15,7 C 0,0 km/h (0 Bft) 0,00 %
29.05.2015 23:30 15,2 C 68 % 1009,7 hPa 0,0 l/m 0,0 km/h (0 Bft) S 186 0 min 0,000 mm 0,0 UV-I 0 W/m 9,3 C 15,2 C 0,0 km/h (0 Bft) 0,00 %
29.05.2015 23:45 15,6 C 62 % 1009,9 hPa 0,0 l/m 0,0 km/h (0 Bft) S-SW 199 0 min 0,000 mm 0,0 UV-I 0 W/m 8,3 C 15,6 C 0,0 km/h (0 Bft) 0,00 %
_ Min-Zeit 05:15 14:00 19:00 - 00:00 - - - - - - 04:00 05:15 00:00 00:00
Minimum _ 7,9 C 30 % 1006,1 hPa - 0,0 km/h (0 Bft) - - - - - - 6,0 C 7,9 C 0,0 km/h (0 Bft) 0,00 %
_ Max-Zeit 14:00 05:00 02:30 00:00 17:30 - - 07:00 00:00 11:45 16:00 19:45 14:00 17:30 00:00
Maximum _ 25,0 C 89 % 1015,2 hPa 0,0 l/m 11,9 km/h
O-SO (2 Bft)
- - 15 min 0,000 mm 6,0 UV-I 1053 W/m 10,3 C 25,0 C 15,8 km/h
O-SO (3 Bft)
0,00 %
Durchschnitt _ 16,9 C 59 % 1011,2 hPa #0,0 l/m 0,9 km/h (0 Bft) O-SO - #12:45 h #0,000 mm 3,0 UV-I 536 W/m 7,9 C 16,9 C 1,9 km/h (1 Bft) 0,00 %